RYR57HE EGPH-LFBE

Flight info

Callsign RYR57HE
Flight time N/A
Altitude 33000
Route GOSAM P600 FENIK L612 NAVSO DCT AKOMU DCT VAMEB UL612 HON DCT SITET UN859 SOPIL DCT BALAN DCT LMG A34 BUGUS
Aircraft B738/M-SDE3FGILRWY/SB1

Departure

Time N/A
Airport Edinburgh Airport (EGPH)

Arrival

Time 2026-04-26 11:08
Airport Bergerac Dordogne-Périgord airport (LFBE)
Time Latitude Longitude Altitude Speed Heading
2026-04-26 10:30 48.06594 0.81793 33227 ft 429 kts 167°
2026-04-26 10:30 48.00799 0.84058 33222 ft 428 kts 167°
2026-04-26 10:31 47.94994 0.86324 33220 ft 427 kts 167°
2026-04-26 10:31 47.89245 0.88563 33220 ft 428 kts 167°
2026-04-26 10:32 47.83440 0.90817 33220 ft 429 kts 167°
2026-04-26 10:32 47.77645 0.93063 33218 ft 429 kts 167°
2026-04-26 10:33 47.71858 0.95303 33218 ft 430 kts 167°
2026-04-26 10:33 47.66064 0.97539 33213 ft 428 kts 166°
2026-04-26 10:34 47.60263 0.99771 33211 ft 428 kts 166°
2026-04-26 10:34 47.54464 1.02000 33213 ft 430 kts 166°
2026-04-26 10:35 47.48668 1.04221 33206 ft 430 kts 166°
2026-04-26 10:35 47.42844 1.06134 33204 ft 429 kts 173°
2026-04-26 10:36 47.36858 1.06624 33207 ft 428 kts 182°
2026-04-26 10:36 47.30895 1.06426 33203 ft 426 kts 183°
2026-04-26 10:37 47.24881 1.06161 33201 ft 427 kts 183°
2026-04-26 10:37 47.18962 1.05945 33204 ft 428 kts 183°
2026-04-26 10:38 47.12983 1.05767 33201 ft 428 kts 182°
2026-04-26 10:38 47.07053 1.05615 33203 ft 427 kts 182°
2026-04-26 10:39 47.01099 1.05466 33201 ft 427 kts 182°
2026-04-26 10:39 46.95148 1.05234 33200 ft 428 kts 183°
2026-04-26 10:40 46.89217 1.04964 33198 ft 428 kts 183°
2026-04-26 10:40 46.83224 1.04693 33196 ft 428 kts 183°
2026-04-26 10:41 46.77249 1.04430 33195 ft 428 kts 183°
2026-04-26 10:41 46.71285 1.04173 33191 ft 429 kts 183°
2026-04-26 10:42 46.65291 1.03917 33187 ft 429 kts 183°
2026-04-26 10:42 46.59316 1.03665 33192 ft 428 kts 183°
2026-04-26 10:43 46.53343 1.03413 33117 ft 424 kts 183°
2026-04-26 10:43 46.50419 1.03297 32753 ft 418 kts 182°
2026-04-26 10:43 46.47498 1.03227 32381 ft 412 kts 181°
2026-04-26 10:44 46.44653 1.03194 31977 ft 407 kts 181°
2026-04-26 10:44 46.41840 1.03175 31493 ft 405 kts 181°
2026-04-26 10:44 46.38995 1.03159 31005 ft 402 kts 181°
2026-04-26 10:44 46.36172 1.03141 30508 ft 400 kts 181°
2026-04-26 10:45 46.33420 1.03120 30017 ft 397 kts 181°
2026-04-26 10:45 46.30653 1.03095 29533 ft 395 kts 181°
2026-04-26 10:45 46.27927 1.03069 29052 ft 392 kts 181°
2026-04-26 10:45 46.25193 1.03042 28568 ft 390 kts 181°
2026-04-26 10:46 46.22488 1.03013 28093 ft 387 kts 181°
2026-04-26 10:46 46.19800 1.02984 27618 ft 384 kts 181°
2026-04-26 10:46 46.17149 1.02955 27149 ft 382 kts 181°
2026-04-26 10:46 46.14516 1.02926 26682 ft 379 kts 181°
2026-04-26 10:47 46.11870 1.02897 26214 ft 376 kts 181°
2026-04-26 10:47 46.09235 1.02868 25751 ft 374 kts 181°
2026-04-26 10:47 46.06646 1.02839 25291 ft 371 kts 181°
2026-04-26 10:47 46.04086 1.02811 24834 ft 369 kts 181°
2026-04-26 10:48 46.01516 1.02782 24369 ft 366 kts 181°
2026-04-26 10:48 45.98968 1.02754 23921 ft 364 kts 181°
2026-04-26 10:48 45.96423 1.02726 23466 ft 361 kts 181°
2026-04-26 10:48 45.93943 1.02698 23029 ft 359 kts 180°
2026-04-26 10:49 45.91450 1.02670 22583 ft 356 kts 180°
2026-04-26 10:49 45.88958 1.02643 22135 ft 354 kts 180°
2026-04-26 10:49 45.86618 1.02617 21719 ft 351 kts 180°
2026-04-26 10:49 45.84182 1.02590 21286 ft 349 kts 180°
2026-04-26 10:50 45.81749 1.02563 20846 ft 346 kts 180°
2026-04-26 10:50 45.79335 1.02473 20414 ft 344 kts 182°
2026-04-26 10:50 45.76969 1.02297 19991 ft 341 kts 183°
2026-04-26 10:50 45.74618 1.02090 19569 ft 339 kts 183°
2026-04-26 10:51 45.72239 1.01876 19136 ft 336 kts 183°
2026-04-26 10:51 45.67582 1.01469 18294 ft 331 kts 183°
2026-04-26 10:51 45.65305 1.01279 17881 ft 328 kts 182°
2026-04-26 10:52 45.63026 1.01095 17476 ft 325 kts 182°
2026-04-26 10:52 45.60786 1.00917 17067 ft 323 kts 182°
2026-04-26 10:52 45.58567 1.00741 16668 ft 320 kts 182°
2026-04-26 10:52 45.56348 1.00568 16263 ft 317 kts 182°
2026-04-26 10:53 45.54133 1.00394 15866 ft 314 kts 182°
2026-04-26 10:53 45.51960 1.00223 15470 ft 312 kts 182°
2026-04-26 10:53 45.49794 1.00051 15078 ft 309 kts 182°
2026-04-26 10:54 45.45551 0.99702 14301 ft 303 kts 182°
2026-04-26 10:54 45.43443 0.99527 13911 ft 301 kts 182°
2026-04-26 10:54 45.41354 0.99353 13529 ft 298 kts 182°
2026-04-26 10:54 45.39321 0.99185 13163 ft 295 kts 182°
2026-04-26 10:55 45.37267 0.99018 12791 ft 293 kts 182°
2026-04-26 10:55 45.35236 0.98854 12413 ft 291 kts 182°
2026-04-26 10:55 45.33208 0.98690 12040 ft 288 kts 182°
2026-04-26 10:55 45.31223 0.98528 11674 ft 286 kts 182°
2026-04-26 10:56 45.29240 0.98364 11311 ft 284 kts 182°
2026-04-26 10:56 45.27284 0.98195 10953 ft 281 kts 182°
2026-04-26 10:56 45.25331 0.98026 10592 ft 279 kts 182°
2026-04-26 10:56 45.23376 0.97858 10236 ft 277 kts 182°
2026-04-26 10:57 45.21478 0.97699 10029 ft 269 kts 182°
2026-04-26 10:57 45.19602 0.97545 9703 ft 268 kts 182°
2026-04-26 10:57 45.17743 0.97391 9351 ft 267 kts 182°
2026-04-26 10:57 45.15904 0.97239 9024 ft 265 kts 182°
2026-04-26 10:58 45.14070 0.97089 8698 ft 263 kts 182°
2026-04-26 10:58 45.12235 0.96943 8373 ft 261 kts 182°
2026-04-26 10:58 45.10448 0.96810 8051 ft 259 kts 182°
2026-04-26 10:58 45.08638 0.96679 7723 ft 258 kts 182°
2026-04-26 10:59 45.06849 0.96548 7401 ft 256 kts 182°
2026-04-26 10:59 45.05078 0.96414 7075 ft 255 kts 182°
2026-04-26 10:59 45.03301 0.96270 6990 ft 259 kts 182°
2026-04-26 10:59 45.01510 0.96134 6960 ft 250 kts 182°
2026-04-26 11:00 44.99800 0.95817 6964 ft 251 kts 196°
2026-04-26 11:00 44.98176 0.94835 6882 ft 252 kts 210°
2026-04-26 11:00 44.96653 0.93576 6759 ft 252 kts 211°
2026-04-26 11:00 44.95156 0.92330 6617 ft 251 kts 210°
2026-04-26 11:01 44.93612 0.91104 6367 ft 251 kts 209°
2026-04-26 11:01 44.92097 0.89936 6123 ft 249 kts 209°
2026-04-26 11:01 44.90572 0.88773 5828 ft 249 kts 208°
2026-04-26 11:01 44.89127 0.87678 5363 ft 255 kts 208°
2026-04-26 11:02 44.87585 0.86509 4875 ft 256 kts 208°
2026-04-26 11:02 44.86028 0.85324 4449 ft 252 kts 208°
2026-04-26 11:02 44.84495 0.84158 4032 ft 249 kts 208°
2026-04-26 11:02 44.82969 0.82979 3612 ft 247 kts 211°
2026-04-26 11:03 44.81620 0.81520 3197 ft 244 kts 230°
2026-04-26 11:03 44.80864 0.79434 2760 ft 239 kts 261°
2026-04-26 11:03 44.80873 0.77176 2488 ft 226 kts 284°
2026-04-26 11:03 44.81179 0.75095 2407 ft 209 kts 279°
2026-04-26 11:04 44.81305 0.73166 2460 ft 190 kts 274°
2026-04-26 11:04 44.81365 0.71378 2451 ft 174 kts 275°
2026-04-26 11:04 44.81457 0.69708 2452 ft 169 kts 277°
2026-04-26 11:04 44.81557 0.68046 2300 ft 171 kts 276°
2026-04-26 11:05 44.81647 0.66405 2036 ft 165 kts 276°
2026-04-26 11:05 44.81738 0.64782 1856 ft 165 kts 276°
2026-04-26 11:05 44.81828 0.63175 1602 ft 166 kts 276°
2026-04-26 11:05 44.81914 0.61605 1397 ft 151 kts 276°
2026-04-26 11:06 44.81996 0.60145 1198 ft 146 kts 276°
2026-04-26 11:06 44.82079 0.58749 961 ft 140 kts 277°
2026-04-26 11:06 44.82160 0.57386 834 ft 138 kts 275°
2026-04-26 11:06 44.82231 0.56016 642 ft 141 kts 275°
2026-04-26 11:07 44.82307 0.54624 452 ft 141 kts 275°
2026-04-26 11:07 44.82378 0.53242 255 ft 141 kts 276°
2026-04-26 11:07 44.82450 0.51950 179 ft 104 kts 275°
2026-04-26 11:07 44.82489 0.51243 180 ft 59 kts 275°
2026-04-26 11:08 44.82513 0.50782 180 ft 24 kts 275°
2026-04-26 11:08 44.82484 0.50663 179 ft 14 kts 199°
2026-04-26 11:08 44.82376 0.50666 179 ft 16 kts 149°
2026-04-26 11:08 44.82347 0.50828 180 ft 19 kts 94°
2026-04-26 11:09 44.82338 0.51013 180 ft 15 kts 94°
2026-04-26 11:09 44.82330 0.51156 180 ft 16 kts 95°
2026-04-26 11:09 44.82320 0.51338 180 ft 20 kts 94°
2026-04-26 11:09 44.82310 0.51544 180 ft 15 kts 94°
2026-04-26 11:10 44.82305 0.51638 180 ft 5 kts 97°
2026-04-26 11:10 44.82284 0.51652 180 ft 3 kts 185°
2026-04-26 11:10 44.82265 0.51648 181 ft 0 kts 199°
2026-04-26 11:10 44.82263 0.51637 181 ft 1 kts 278°
2026-04-26 11:11 44.82268 0.51624 181 ft 0 kts 308°